Flag for Germany Weather past 2 weeks in Dormagen, North Rhine-Westphalia, Germany

Now
36 °F

Drizzle. Fog.


Feels Like: 29 °F
Forecast: 37 / 43 °F
Wind: 8 mph from Southwest

Location: Duesseldorf

Current Time: Jan 25, 2015 at 5:24:18 PM

Latest Report: Jan 25, 2015 at 4:50 PM


Visibility: 1 mi

Pressure: 30.36 "Hg

Humidity: 100%

Dew point: 36 °F

Location of DormagenLocation

Historic Weather in Dormagen — Graph

°F

Dormagen temperature yesterday

Maximum temperature yesterday: 37 °F (at 4:20 PM)
Minimum temperature yesterday: 30 °F (at 2:20 AM)
Average temperature yesterday: 33 °F

Past Weeks' High & Low Weather Summary

 TemperatureHumidityPressure
High54 °F (Jan 13, 10:50 AM)100% (Jan 17, 8:20 AM)30.42 "Hg (Jan 17, 8:20 AM)
Low25 °F (Jan 25, 2:20 AM)52% (Jan 21, 1:20 PM)29.42 "Hg (Jan 15, 3:20 PM)
Average38 °F79%29.94 "Hg
* Reported Jan 10 4:20 PM — Jan 25 4:20 PM, Dormagen, Weather by CustomWeather, © 2014

Note: Actual official high and low records may vary slightly from our data, if they occured in-between our weather recording intervals... More about our weather records

Advertising

Dormagen weather history for previous 24 hours

 ConditionsComfort  
Time TempWeatherWind HumidityBarometerVisibility
4:20 PM
Jan 25
36 °FDrizzle. Fog.7 mph93%30.39 "Hg2 mi
3:50 PM36 °FDrizzle. Fog.7 mph100%30.36 "Hg2 mi
3:20 PM36 °FDrizzle. Fog.7 mph100%30.39 "Hg2 mi
2:50 PM36 °FDrizzle. Fog.7 mph93%30.36 "Hg3 mi
2:20 PM36 °FDrizzle. Fog.7 mph93%30.39 "Hg3 mi
1:50 PM36 °FFog.7 mph93%30.39 "Hg3 mi
1:20 PM36 °FFog.7 mph93%30.39 "Hg3 mi
12:50 PM36 °FFog.7 mph93%30.39 "Hg3 mi
12:20 PM36 °FFog.7 mph93%30.39 "Hg3 mi
11:50 AM36 °FFog.6 mph93%30.42 "Hg2 mi
11:20 AM36 °FFog.6 mph93%30.42 "Hg2 mi
10:50 AM34 °FFog.5 mph100%30.42 "Hg2 mi
10:20 AM34 °FFog.3 mph100%30.42 "Hg2 mi
9:50 AM34 °FFog.6 mph100%30.42 "Hg2 mi
9:20 AM32 °FIce fog.5 mph100%30.42 "Hg2 mi
8:50 AM32 °FIce fog.6 mph100%30.42 "Hg2 mi
8:20 AM32 °FIce fog.6 mph100%30.39 "Hg2 mi
7:50 AM32 °FIce fog.5 mph100%30.39 "Hg2 mi
7:20 AM32 °FIce fog.6 mph100%30.39 "Hg2 mi
6:50 AM28 °FIce fog.5 mph100%30.39 "Hg2 mi
6:20 AM28 °FFog.3 mph100%30.39 "Hg4 mi
5:50 AM27 °FPassing clouds.3 mph100%30.39 "Hg4 mi
5:20 AM27 °FIce fog.5 mph100%30.36 "Hg1 mi
4:20 AM27 °FIce fog.2 mph100%30.36 "Hg1 mi
3:50 AM27 °FIce fog.2 mph100%30.36 "Hg0 mi
3:20 AM27 °FIce fog.2 mph100%30.36 "Hg0 mi
2:50 AM27 °FIce fog.2 mph100%30.36 "Hg0 mi
2:20 AM25 °FCold.2 mph100%30.33 "Hg1 mi
1:50 AM27 °FChilly.2 mph93%30.33 "Hg2 mi
1:20 AM27 °FChilly.2 mph100%30.33 "Hg2 mi
12:50 AM28 °FFog.3 mph93%30.33 "HgN/A
12:20 AM30 °FFog.5 mph93%30.33 "HgN/A
11:50 PM
Jan 24
30 °FFog.6 mph93%30.33 "HgN/A
11:20 PM32 °FPassing clouds.5 mph100%30.30 "HgN/A
10:50 PM34 °FPassing clouds.3 mph93%30.30 "HgN/A
10:20 PM34 °FPassing clouds.6 mph93%30.30 "HgN/A
9:50 PM36 °FPassing clouds.7 mph93%30.30 "HgN/A
9:20 PM36 °FPassing clouds.7 mph93%30.27 "HgN/A
8:50 PM34 °FPassing clouds.6 mph93%30.27 "HgN/A
8:20 PM34 °FPassing clouds.8 mph100%30.27 "HgN/A
7:50 PM36 °FPassing clouds.8 mph93%30.27 "HgN/A
7:20 PM36 °FPassing clouds.6 mph93%30.24 "HgN/A
6:50 PM36 °FPassing clouds.9 mph93%30.24 "HgN/A
6:20 PM36 °FPassing clouds.9 mph93%30.21 "HgN/A
5:50 PM36 °FPassing clouds.7 mph93%30.18 "HgN/A
5:20 PM37 °FPassing clouds.8 mph87%30.18 "HgN/A
Weather by CustomWeather, © 2014

See weather overviewHow to use our weather pages